リニア-ニート彗星

P/2004 T1 ( LINEAR-NEAT )

English version
Home page
Updated on April 23, 2005

---------------------------------------------------------------------

・ プロフィール

発見日 2004年10月5日
発見光度 17.2, 15.2等
発見者 Lincoln Laboratory Near-Earth Asteroid Research project, Near-Earth-Asteroid Tracking Team (Jet Propulsion Laboratory)

・ 写真集

・ 軌道要素

Epoch 2004 Nov. 11.0 TT = JDT 2453320.5
T 2004 Nov. 7.77087 TT                                  MPC
q   1.7095436            (2000.0)            P               Q
n   0.15234539     Peri.  336.52398     +0.87730946     -0.45596347
a   3.4720276      Node    51.46066     +0.46506484     +0.73065276
e   0.5076238      Incl.   11.03762     +0.11850234     +0.50817699
P   6.47
>From 329 observations 2004 July 16-Nov. 19, mean residual 0".63.

・ 星図

・ 光度変化

        m1 = 6.5 + 5 logΔ + 35 log r(t + 25)

---------------------------------------------------------------------

軌道要素はM.P.E.C. 2004-W14に掲載されたものです。
星図は StellaNavigator Ver.2.0 for Windows (アストロアーツ 編著 / アスキー出版局刊) で作成したものです。
光度グラフはComet for Windowsで作成したものです。

---------------------------------------------------------------------

Copyright(C) Seiichi Yoshida (comet@aerith.net). All rights reserved.